星链-37576(STARLINK-37576)

导读

STARLINK-37576(NORAD编号69047)是SpaceX星链互联网星座中的一颗低地球轨道(LEO)卫星,隶属于SpaceX公司主导的全球卫星互联网项目。该卫星旨在为全球目前缺乏网络覆盖的地区提供低延迟、高速的互联网接入服务,延续星链项目星座组网布局。 作为星链大规模量产卫星中的一员,它工作在近地轨道,结合地面收发站实现全球网络覆盖。当前星链项目已完成多批次卫星发射部署,逐步推进版本升级,STARLINK-37576是星链扩张全球联网覆盖过程中的一员,助力实现全球泛在互联的目标。(150字)

基本信息
目录编号:
69047
目录名称:
STARLINK-37576
国际标识:
2026-101Y
轨道中心:
EARTH
卫星名称:
星链-37576
卫星全名:
星链-37576(STARLINK-37576)
卫星状态:
在轨 (已飞行129 天)
发射日期:
2026-05-06 UTC
国别 :
美国 (US)
星等 :
--
该卫星已列入 空间交会检测服务 Space Conjunction Data Service (SCDS) ,当前飞行风险评估等级: 无高风险
轨道信息
数据来源 国际轨道数据 AOE轨道数据
星历时间 2026-09-11T21:21:11+0800
19小时前
查看轨道信息
2026-09-05T23:00:00+0800
6天前
查看轨道信息
半长轴 6843.652km 6843.604km
偏心率 0.0002424 0.0002072
轨道倾角 97.286° 97.286°
近地点辐角 91.196° 87.510°
升交点赤经 108.254° 102.408°
平近点角 268.956° 310.497°
近地点 463.856km 464.049km
远地点 467.174km 466.885km
周期 93.906分钟 93.905分钟
每日圈数 15.334548 15.334709
详细信息
固有亮度:
5
最大亮度:
2.5
卫星平台:
Starlink V1.0
覆盖范围:
全球
运营商:
太空探索技术公司
运营商所在国:
美国
制造商(研发单位):
太空探索技术公司
制造商所在国:
美国
使用方式:
暂无
卫星简介
Starlink 计划是 SpaceX 推出的全球卫星互联网项目,通过发射低轨道卫星,为全球尤其是偏远地区提供高速、低延迟的互联网服务。自 2019 年起,Starlink 已部署数千颗卫星,旨在缩小全球数字鸿沟,推动互联网普及。该项目还为军事、航空等行业提供通信支持,带来广泛经济效益。
2D轨道图
3D轨道图
轨道高度分析图
轨道倾角分析图
轨道综合分析图
查看轨道综合分析图
交会数据列表
事件ID 空间交会对象 最接近时刻(TCA) 交会距离 交会风险概率(CRP) 交会风险指数(CRI) 操作
CDM_260913-005806-493706-904721
2026-09-13T
00:58:46+0000
0.551 km
远距离
2.866405E-5 中风险 0.64
CDM_260914-001804-775006-904722
2026-09-14T
00:18:03+0000
1.837 km
极远距离
2.78431E-6 低风险 0.44
CDM_260913-014506-493706-904721
2026-09-13T
01:45:45+0000
1.134 km
极远距离
2.640874E-6 低风险 0.43
CDM_260912-214006-351306-904721
2026-09-12T
21:40:54+0000
2.473 km
极远距离
1.666772E-6 低风险 0.39
CDM_260913-001106-493706-904721
2026-09-13T
00:11:47+0000
2.325 km
极远距离
4.2309E-7 极低风险 0.28
CDM_260913-023206-493706-904721
2026-09-13T
02:32:44+0000
2.399 km
极远距离
4.027326E-7 极低风险 0.27
与全量物体交会距离演化趋势
与全量物体交会风险概率演化趋势